Regional Weather Roundup
Issued by NWS

Home | Current Version | Previous Version | Graphics & Text | Print | Product List | Glossary On
Versions: 1 2 3 4 5 6 7 8 9 10 11 12 13 14 15 16 17 18 19 20 21 22 23 24 25 26 27 28 29 30 31 32 33 34 35 36 37 38 39 40 41 42 43 44 45 46 47 48 49 50
000
ASUS43 KLOT 011403
RWRIL

ILLINOIS REGIONAL WEATHER ROUNDUP
NATIONAL WEATHER SERVICE CHICAGO/ROMEOVILLE IL
900 AM CDT SUN MAY 01 2016

NOTE: "FAIR" INDICATES FEW OR NO CLOUDS BELOW 12,000 FEET WITH NO
SIGNIFICANT WEATHER AND/OR OBSTRUCTIONS TO VISIBILITY.

* THESE STATIONS ARE NOT UNDER NWS QUALITY CONTROL. THEY ALSO MAY NOT
  REPORT WEATHER SUCH AS PRECIPITATION OR FOG.

ILZ001-002-007-009-015-016-024-011500-
NORTHWEST ILLINOIS

CITY           SKY/WX    TMP DP  RH WIND       PRES   REMARKS
MOLINE         CLOUDY    49  45  86 NE10      29.97S FOG
STERLING*      CLOUDY    46  45  93 NE8       30.00S
$$

ILZ003-004-008-010-011-017-018-011500-
NORTH CENTRAL ILLINOIS

CITY           SKY/WX    TMP DP  RH WIND       PRES   REMARKS
ROCKFORD       CLOUDY    46  43  89 E9        30.04R
FREEPORT*      CLOUDY    44  42  95 NE10      30.04R
DE KALB*       CLOUDY    44  44  98 NE14      30.01R FOG
$$

ILZ005-006-012>014-019>023-011500-
NORTHEAST ILLINOIS

CITY           SKY/WX    TMP DP  RH WIND       PRES   REMARKS
CHICAGO-OHARE  FOG       43  43 100 NE13      30.00R VSB 3/4
CHICAGO-MIDWAY CLOUDY    45  42  89 N13       29.99R FOG
AURORA         CLOUDY    46  44  93 NE9       30.00R FOG
LANSING*       FOG       46  46 100 N6        29.97S VSB 1/2
WAUKEGAN       FOG       43  43 100 N12       30.01R VSB 1
DUPAGE AIRPORT CLOUDY    44  42  93 NE12      29.99R FOG
WHEELING       CLOUDY    43  43 100 N13G22    30.01R FOG
NORTHERLY ISL    N/A     43  42  97 NW9         N/A
NORTHERLY ISL    N/A     43  42  97 NW9         N/A
$$

LMZ740>746-011500-
SOUTHERN LAKE MICHIGAN

STATION/POSITION SKY/WX   TEMP    WIND        PRES    VSBY  WAVE
                          AIR SEA DIR/SP/G                  HT/PER
                          (F)     (DEG/KT/KT) (MB)    (MI)  (FT/S)
SOUTHERN BUOY              42 40   40/ 17/ 19 1014.8          3/ 4
HARRISON CRIB              43      30/ 17/ 19   N/A
BURNHAM HARBOR             43     350/  7/ 14   N/A
CALUMET HARBOR             44      10/ 11/ 15 1014.2R
BURNS HARBOR               45      30/ 15/ 16 1014.9S
MICHIGAN CITY              45     360/ 14/ 16   N/A
ST. JOSEPH                 48 49                N/A           2/ 5
$$

ILZ025>027-034>036-040-047-049-050-058-095>099-011500-
WEST-CENTRAL ILLINOIS

CITY           SKY/WX    TMP DP  RH WIND       PRES   REMARKS
QUINCY         CLOUDY    51  49  92 NE8       29.94R FOG
MACOMB*        CLOUDY    48  48 100 NE9       29.98R FOG
$$

ILZ028>032-037-038-041>044-048-051>054-059>061-011500-
CENTRAL ILLINOIS

CITY           SKY/WX    TMP DP  RH WIND       PRES   REMARKS
BLOOMINGTON    FOG       50  50 100 NE12      29.95S VSB 1/4
DECATUR        CLOUDY    55  53  93 NE6       29.94R FOG
PEORIA         CLOUDY    50  48  93 NE6       29.95S FOG
SPRINGFIELD    CLOUDY    53  51  93 N8        29.94R FOG
TAYLORVILLE    NOT AVBL
$$

ILZ033-039-045-046-055>057-062-063-011500-
EAST-CENTRAL ILLINOIS

CITY           SKY/WX    TMP DP  RH WIND       PRES   REMARKS
CHAMPAIGN      CLOUDY    55  55 100 CALM      29.93R FOG
MATTOON        FOG       55  53  93 N12       29.92R VSB 3/4
$$

ILZ079-100>102-011500-
SOUTHWEST ILLINOIS

CITY           SKY/WX    TMP DP  RH WIND       PRES   REMARKS
ALTON          CLOUDY    61  59  94 NW7       29.92R
CAHOKIA*       CLOUDY    63  59  87 W5        29.91R FOG
SPARTA*        CLOUDY    62  60  91 W3        29.92R
$$

ILZ064>066-069>071-074>076-080>082-084>086-088>090-092>094-011500-
SOUTH-CENTRAL ILLINOIS

CITY           SKY/WX    TMP DP  RH WIND       PRES   REMARKS
CARBONDALE     SUNNY     65  58  78 S7        29.91R
MARION         MOSUNNY   68  61  77 S8        29.91S
MT. VERNON     SUNNY     66  57  72 SW3       29.92R
SALEM*         SUNNY     68  60  76 SW6       29.91R
$$

ILZ067-068-072-073-078-083-087-091-011500-
SOUTHEAST ILLINOIS

CITY           SKY/WX    TMP DP  RH WIND       PRES   REMARKS
LAWRENCEVILLE  SUNNY     67  60  78 CALM        N/A
FLORA*         SUNNY     66  60  80 CALM      29.92R
HARRISBURG*    SUNNY     68  60  76 SE3       29.91S
ROBINSON*      SUNNY     64  58  80 CALM      29.93R
$$

ABBREVIATIONS USED IN REMARKS
   TC - TEMPERATURE IN CELSIUS
  WCI - WIND CHILL INDEX
   HX - HEAT INDEX
  VSB - VISIBILITY
$$





USA.gov is the U.S. government's official web portal to all federal, state and local government web resources and services.